UAL2327 KDEN-KOMA

Flight info

Callsign UAL2327
Flight time 1h 5m
Altitude 37000
Route EEONS8 WYNDM HCT GRI HOWRY3
Aircraft A319/M-SDE3FGHIRWY/LB1

Departure

Time 2026-04-25 05:02
Airport Denver International Airport (KDEN)

Arrival

Time 2026-04-25 06:07
Airport Eppley Airfield (KOMA)
Time Latitude Longitude Altitude Speed Heading
2026-04-25 04:44 39.85812 -104.68006 5378 ft 0 kts
2026-04-25 04:51 39.85796 -104.68006 5378 ft 3 kts
2026-04-25 04:52 39.85777 -104.68006 5375 ft 3 kts
2026-04-25 04:52 39.85765 -104.68006 5376 ft 3 kts
2026-04-25 04:52 39.85748 -104.68001 5378 ft 3 kts 294°
2026-04-25 04:52 39.85746 -104.67994 5378 ft 0 kts 274°
2026-04-25 04:57 39.85746 -104.68009 5378 ft 3 kts 274°
2026-04-25 04:57 39.85747 -104.68048 5377 ft 5 kts 267°
2026-04-25 04:57 39.85739 -104.68119 5380 ft 10 kts 262°
2026-04-25 04:58 39.85717 -104.68196 5377 ft 10 kts 217°
2026-04-25 04:58 39.85687 -104.68287 5378 ft 14 kts 269°
2026-04-25 04:58 39.85710 -104.68391 5373 ft 13 kts 335°
2026-04-25 04:58 39.85813 -104.68399 5371 ft 17 kts
2026-04-25 04:59 39.85948 -104.68396 5372 ft 22 kts
2026-04-25 04:59 39.86114 -104.68393 5369 ft 22 kts
2026-04-25 04:59 39.86283 -104.68392 5367 ft 18 kts
2026-04-25 04:59 39.86394 -104.68396 5365 ft 15 kts 346°
2026-04-25 05:00 39.86427 -104.68538 5363 ft 9 kts 270°
2026-04-25 05:00 39.86427 -104.68579 5363 ft 0 kts 270°
2026-04-25 05:00 39.86427 -104.68612 5363 ft 8 kts 270°
2026-04-25 05:00 39.86448 -104.68707 5362 ft 13 kts 321°
2026-04-25 05:01 39.86567 -104.68717 5364 ft 29 kts
2026-04-25 05:01 39.86936 -104.68713 5363 ft 78 kts
2026-04-25 05:01 39.87645 -104.68708 5362 ft 125 kts
2026-04-25 05:01 39.88672 -104.68699 5370 ft 168 kts
2026-04-25 05:02 39.89850 -104.68691 5992 ft 171 kts
2026-04-25 05:02 39.91047 -104.68671 6764 ft 173 kts
2026-04-25 05:02 39.92202 -104.68252 7247 ft 185 kts 35°
2026-04-25 05:02 39.92965 -104.66756 7470 ft 217 kts 65°
2026-04-25 05:03 39.93573 -104.64830 7812 ft 242 kts 64°
2026-04-25 05:03 39.94286 -104.62723 8241 ft 266 kts 62°
2026-04-25 05:03 39.94887 -104.60368 8829 ft 285 kts 82°
2026-04-25 05:03 39.94943 -104.57744 9559 ft 294 kts 87°
2026-04-25 05:04 39.95004 -104.55030 9950 ft 303 kts 86°
2026-04-25 05:04 39.95091 -104.52250 10030 ft 318 kts 86°
2026-04-25 05:04 39.95192 -104.49292 10025 ft 332 kts 86°
2026-04-25 05:04 39.95290 -104.46269 10012 ft 336 kts 86°
2026-04-25 05:05 39.95386 -104.43218 10012 ft 337 kts 86°
2026-04-25 05:05 39.95476 -104.40174 10006 ft 336 kts 86°
2026-04-25 05:05 39.95627 -104.37104 10471 ft 343 kts 84°
2026-04-25 05:05 39.95841 -104.33989 11138 ft 348 kts 84°
2026-04-25 05:06 39.96083 -104.30836 11749 ft 355 kts 84°
2026-04-25 05:06 39.96334 -104.27621 11924 ft 359 kts 84°
2026-04-25 05:06 39.96582 -104.24388 11941 ft 357 kts 85°
2026-04-25 05:06 39.96822 -104.21167 11919 ft 358 kts 85°
2026-04-25 05:07 39.97054 -104.17935 11907 ft 357 kts 85°
2026-04-25 05:07 39.97282 -104.14729 11905 ft 356 kts 84°
2026-04-25 05:07 39.97577 -104.11485 12434 ft 363 kts 83°
2026-04-25 05:07 39.97925 -104.08232 13258 ft 361 kts 82°
2026-04-25 05:08 39.98299 -104.04969 13922 ft 367 kts 83°
2026-04-25 05:08 39.98678 -104.01701 14539 ft 371 kts 83°
2026-04-25 05:08 39.99061 -103.98337 15261 ft 372 kts 83°
2026-04-25 05:08 39.99432 -103.95011 15841 ft 378 kts 84°
2026-04-25 05:09 39.99816 -103.91614 16569 ft 379 kts 83°
2026-04-25 05:09 40.00277 -103.88207 17192 ft 385 kts 81°
2026-04-25 05:09 40.00814 -103.84781 17925 ft 385 kts 79°
2026-04-25 05:09 40.01387 -103.81362 18560 ft 388 kts 78°
2026-04-25 05:10 40.01974 -103.77910 19124 ft 391 kts 78°
2026-04-25 05:10 40.02561 -103.74425 19633 ft 397 kts 79°
2026-04-25 05:10 40.03156 -103.70882 20175 ft 401 kts 79°
2026-04-25 05:10 40.03752 -103.67310 20715 ft 405 kts 79°
2026-04-25 05:11 40.04349 -103.63692 21256 ft 409 kts 79°
2026-04-25 05:11 40.04944 -103.60057 21808 ft 413 kts 79°
2026-04-25 05:11 40.05542 -103.56374 22334 ft 417 kts 79°
2026-04-25 05:12 40.06754 -103.48909 23398 ft 424 kts 79°
2026-04-25 05:12 40.07371 -103.45112 23785 ft 430 kts 79°
2026-04-25 05:12 40.07995 -103.41268 24231 ft 435 kts 79°
2026-04-25 05:12 40.08626 -103.37386 24645 ft 439 kts 79°
2026-04-25 05:13 40.09260 -103.33465 25056 ft 443 kts 79°
2026-04-25 05:13 40.09896 -103.29506 25446 ft 447 kts 78°
2026-04-25 05:13 40.10536 -103.25510 25855 ft 451 kts 78°
2026-04-25 05:13 40.11180 -103.21479 26257 ft 455 kts 78°
2026-04-25 05:14 40.11826 -103.17410 26636 ft 459 kts 78°
2026-04-25 05:14 40.12478 -103.13307 26993 ft 463 kts 78°
2026-04-25 05:14 40.13135 -103.09172 27341 ft 466 kts 78°
2026-04-25 05:15 40.14465 -103.00823 28097 ft 473 kts 78°
2026-04-25 05:15 40.15132 -102.96593 28475 ft 477 kts 78°
2026-04-25 05:15 40.15803 -102.92330 28851 ft 481 kts 78°
2026-04-25 05:15 40.16480 -102.88034 29208 ft 484 kts 78°
2026-04-25 05:16 40.17162 -102.83705 29577 ft 488 kts 77°
2026-04-25 05:16 40.17846 -102.79343 29929 ft 491 kts 77°
2026-04-25 05:16 40.18529 -102.74951 30226 ft 494 kts 77°
2026-04-25 05:16 40.19211 -102.70535 30560 ft 496 kts 77°
2026-04-25 05:17 40.19894 -102.66099 30884 ft 499 kts 77°
2026-04-25 05:17 40.20580 -102.61643 31174 ft 501 kts 77°
2026-04-25 05:17 40.21271 -102.57166 31482 ft 503 kts 77°
2026-04-25 05:17 40.21962 -102.52679 31790 ft 505 kts 77°
2026-04-25 05:18 40.22658 -102.48155 32149 ft 506 kts 77°
2026-04-25 05:18 40.23339 -102.43716 32567 ft 505 kts 77°
2026-04-25 05:18 40.24025 -102.39214 33011 ft 504 kts 77°
2026-04-25 05:18 40.24708 -102.34714 33424 ft 504 kts 77°
2026-04-25 05:19 40.25388 -102.30214 33806 ft 504 kts 77°
2026-04-25 05:19 40.26068 -102.25714 34163 ft 504 kts 77°
2026-04-25 05:19 40.26748 -102.21216 34513 ft 503 kts 77°
2026-04-25 05:19 40.27427 -102.16719 34839 ft 503 kts 77°
2026-04-25 05:20 40.28103 -102.12224 35171 ft 503 kts 77°
2026-04-25 05:20 40.28771 -102.07730 35504 ft 502 kts 77°
2026-04-25 05:20 40.29434 -102.03249 35829 ft 502 kts 77°
2026-04-25 05:20 40.30098 -101.98749 36124 ft 502 kts 77°
2026-04-25 05:21 40.30761 -101.94270 36438 ft 502 kts 77°
2026-04-25 05:21 40.31430 -101.89783 36694 ft 502 kts 77°
2026-04-25 05:21 40.32096 -101.85303 36761 ft 500 kts 77°
2026-04-25 05:22 40.33406 -101.76385 36778 ft 498 kts 77°
2026-04-25 05:22 40.34701 -101.67478 36775 ft 497 kts 78°
2026-04-25 05:23 40.35990 -101.58611 36797 ft 494 kts 78°
2026-04-25 05:23 40.37265 -101.49773 36794 ft 493 kts 78°
2026-04-25 05:24 40.38529 -101.40946 36785 ft 493 kts 78°
2026-04-25 05:24 40.39796 -101.32112 36771 ft 493 kts 78°
2026-04-25 05:25 40.41059 -101.23290 36767 ft 491 kts 79°
2026-04-25 05:25 40.42304 -101.14500 36776 ft 489 kts 79°
2026-04-25 05:26 40.43530 -101.05791 36778 ft 488 kts 79°
2026-04-25 05:26 40.44755 -100.97041 36780 ft 487 kts 79°
2026-04-25 05:27 40.46258 -100.88402 36775 ft 485 kts 73°
2026-04-25 05:27 40.48103 -100.79877 36776 ft 485 kts 73°
2026-04-25 05:28 40.49938 -100.71346 36774 ft 485 kts 73°
2026-04-25 05:28 40.51760 -100.62808 36776 ft 485 kts 73°
2026-04-25 05:29 40.53572 -100.54267 36779 ft 485 kts 73°
2026-04-25 05:29 40.55376 -100.45738 36795 ft 483 kts 73°
2026-04-25 05:30 40.57178 -100.37200 36792 ft 488 kts 73°
2026-04-25 05:30 40.59007 -100.28495 36791 ft 499 kts 73°
2026-04-25 05:31 40.60858 -100.19650 36810 ft 503 kts 73°
2026-04-25 05:31 40.62712 -100.10732 36804 ft 507 kts 74°
2026-04-25 05:32 40.64568 -100.01777 36807 ft 507 kts 74°
2026-04-25 05:32 40.66410 -99.92876 36824 ft 507 kts 74°
2026-04-25 05:33 40.68257 -99.83912 36822 ft 507 kts 74°
2026-04-25 05:33 40.70092 -99.74936 36810 ft 509 kts 74°
2026-04-25 05:34 40.71944 -99.65845 36810 ft 511 kts 74°
2026-04-25 05:34 40.73787 -99.56778 36840 ft 513 kts 73°
2026-04-25 05:35 40.75618 -99.47739 36825 ft 514 kts 73°
2026-04-25 05:35 40.77457 -99.38611 36826 ft 515 kts 73°
2026-04-25 05:36 40.79282 -99.29465 36833 ft 516 kts 73°
2026-04-25 05:36 40.81114 -99.20280 36853 ft 517 kts 74°
2026-04-25 05:37 40.82939 -99.11101 36859 ft 518 kts 74°
2026-04-25 05:37 40.84763 -99.01914 36887 ft 516 kts 74°
2026-04-25 05:38 40.86567 -98.92760 36911 ft 514 kts 75°
2026-04-25 05:38 40.88354 -98.83633 36910 ft 512 kts 75°
2026-04-25 05:39 40.90129 -98.74533 36898 ft 508 kts 75°
2026-04-25 05:39 40.90995 -98.70064 36878 ft 496 kts 75°
2026-04-25 05:39 40.91841 -98.65692 36894 ft 488 kts 75°
2026-04-25 05:40 40.93508 -98.57052 36901 ft 483 kts 75°
2026-04-25 05:40 40.94883 -98.49903 36911 ft 483 kts 75°
2026-04-25 05:41 40.96532 -98.41285 36936 ft 485 kts 75°
2026-04-25 05:41 40.97357 -98.36949 36492 ft 487 kts 75°
2026-04-25 05:41 40.98192 -98.32579 35660 ft 494 kts 73°
2026-04-25 05:41 40.99273 -98.28250 34901 ft 496 kts 68°
2026-04-25 05:42 41.00436 -98.23969 34271 ft 493 kts 67°
2026-04-25 05:42 41.01584 -98.19714 33603 ft 488 kts 67°
2026-04-25 05:42 41.02715 -98.15498 32940 ft 483 kts 68°
2026-04-25 05:42 41.03828 -98.11327 32297 ft 477 kts 68°
2026-04-25 05:43 41.04925 -98.07214 31696 ft 472 kts 68°
2026-04-25 05:43 41.06010 -98.03139 31089 ft 466 kts 68°
2026-04-25 05:43 41.07082 -97.99112 30507 ft 461 kts 68°
2026-04-25 05:43 41.08139 -97.95135 29956 ft 454 kts 69°
2026-04-25 05:44 41.09178 -97.91218 29321 ft 447 kts 69°
2026-04-25 05:44 41.10203 -97.87350 28658 ft 442 kts 70°
2026-04-25 05:44 41.11212 -97.83534 28160 ft 435 kts 70°
2026-04-25 05:44 41.12208 -97.79770 27774 ft 430 kts 70°
2026-04-25 05:45 41.13179 -97.76049 27404 ft 424 kts 70°
2026-04-25 05:45 41.14143 -97.72372 27036 ft 420 kts 70°
2026-04-25 05:45 41.15102 -97.68734 26675 ft 416 kts 70°
2026-04-25 05:45 41.16055 -97.65131 26315 ft 412 kts 70°
2026-04-25 05:46 41.16997 -97.61561 25968 ft 408 kts 70°
2026-04-25 05:46 41.17923 -97.58036 25701 ft 401 kts 71°
2026-04-25 05:46 41.18831 -97.54568 25460 ft 396 kts 71°
2026-04-25 05:46 41.19730 -97.51123 25216 ft 394 kts 71°
2026-04-25 05:47 41.20625 -97.47694 24981 ft 392 kts 71°
2026-04-25 05:47 41.21516 -97.44278 24748 ft 391 kts 71°
2026-04-25 05:47 41.22404 -97.40873 24509 ft 389 kts 71°
2026-04-25 05:47 41.23289 -97.37479 24277 ft 388 kts 71°
2026-04-25 05:48 41.24156 -97.34141 24038 ft 387 kts 71°
2026-04-25 05:48 41.25030 -97.30766 23806 ft 386 kts 71°
2026-04-25 05:48 41.25901 -97.27402 23576 ft 384 kts 72°
2026-04-25 05:48 41.26768 -97.24047 23305 ft 383 kts 72°
2026-04-25 05:49 41.27630 -97.20702 23032 ft 382 kts 72°
2026-04-25 05:49 41.28486 -97.17375 22764 ft 381 kts 72°
2026-04-25 05:49 41.29341 -97.14052 22489 ft 379 kts 72°
2026-04-25 05:49 41.30194 -97.10739 22219 ft 378 kts 72°
2026-04-25 05:50 41.31044 -97.07438 21950 ft 377 kts 72°
2026-04-25 05:50 41.31889 -97.04148 21686 ft 375 kts 72°
2026-04-25 05:50 41.32732 -97.00867 21432 ft 374 kts 72°
2026-04-25 05:50 41.33569 -96.97596 21161 ft 373 kts 72°
2026-04-25 05:51 41.34402 -96.94333 20903 ft 372 kts 72°
2026-04-25 05:51 41.35230 -96.91080 20649 ft 371 kts 72°
2026-04-25 05:51 41.35936 -96.87792 20405 ft 369 kts 81°
2026-04-25 05:51 41.36172 -96.84415 20155 ft 365 kts 93°
2026-04-25 05:52 41.35927 -96.81079 19887 ft 360 kts 105°
2026-04-25 05:52 41.35373 -96.77862 19642 ft 356 kts 107°
2026-04-25 05:52 41.34811 -96.74651 19396 ft 355 kts 107°
2026-04-25 05:52 41.34252 -96.71457 19159 ft 354 kts 107°
2026-04-25 05:53 41.33697 -96.68282 18920 ft 353 kts 107°
2026-04-25 05:53 41.33141 -96.65111 18682 ft 351 kts 107°
2026-04-25 05:53 41.32588 -96.61951 18447 ft 350 kts 107°
2026-04-25 05:53 41.32035 -96.58802 18206 ft 349 kts 107°
2026-04-25 05:54 41.31482 -96.55663 17941 ft 348 kts 107°
2026-04-25 05:54 41.30929 -96.52538 17672 ft 346 kts 107°
2026-04-25 05:54 41.29829 -96.46324 17138 ft 344 kts 106°
2026-04-25 05:55 41.29282 -96.43239 16879 ft 341 kts 106°
2026-04-25 05:55 41.28743 -96.40201 16593 ft 335 kts 106°
2026-04-25 05:55 41.28210 -96.37201 16222 ft 333 kts 106°
2026-04-25 05:55 41.27679 -96.34213 15848 ft 331 kts 106°
2026-04-25 05:56 41.27178 -96.31230 15481 ft 331 kts 101°
2026-04-25 05:56 41.27082 -96.28176 15112 ft 332 kts 86°
2026-04-25 05:56 41.27520 -96.25170 14763 ft 331 kts 72°
2026-04-25 05:56 41.28444 -96.22384 14449 ft 328 kts 61°
2026-04-25 05:57 41.29679 -96.19834 14087 ft 330 kts 46°
2026-04-25 05:57 41.31283 -96.17640 13607 ft 332 kts 42°
2026-04-25 05:57 41.32942 -96.15485 13068 ft 334 kts 42°
2026-04-25 05:57 41.34614 -96.13335 12557 ft 333 kts 42°
2026-04-25 05:58 41.36279 -96.11209 12038 ft 330 kts 42°
2026-04-25 05:58 41.37933 -96.09107 11528 ft 326 kts 42°
2026-04-25 05:58 41.39560 -96.07048 11021 ft 319 kts 42°
2026-04-25 05:58 41.41159 -96.05038 10547 ft 313 kts 42°
2026-04-25 05:59 41.42743 -96.03078 10065 ft 308 kts 42°
2026-04-25 05:59 41.44308 -96.01159 9557 ft 304 kts 42°
2026-04-25 05:59 41.45861 -95.99275 9040 ft 300 kts 42°
2026-04-25 05:59 41.47409 -95.97443 8524 ft 295 kts 38°
2026-04-25 06:00 41.49181 -95.96221 8018 ft 290 kts 17°
2026-04-25 06:00 41.51030 -95.95223 7513 ft 285 kts 34°
2026-04-25 06:00 41.52378 -95.93364 7035 ft 277 kts 63°
2026-04-25 06:00 41.52907 -95.90970 6560 ft 266 kts 93°
2026-04-25 06:01 41.52498 -95.88652 6307 ft 254 kts 122°
2026-04-25 06:01 41.51319 -95.86996 6046 ft 245 kts 152°
2026-04-25 06:01 41.49721 -95.86410 5781 ft 238 kts 181°
2026-04-25 06:01 41.48187 -95.87009 5540 ft 228 kts 212°
2026-04-25 06:02 41.47105 -95.88483 5290 ft 218 kts 230°
2026-04-25 06:02 41.46230 -95.90076 5039 ft 208 kts 231°
2026-04-25 06:02 41.45415 -95.91622 4800 ft 202 kts 232°
2026-04-25 06:02 41.44623 -95.93144 4560 ft 197 kts 232°
2026-04-25 06:03 41.43862 -95.94620 4313 ft 190 kts 232°
2026-04-25 06:03 41.43128 -95.96056 4056 ft 185 kts 232°
2026-04-25 06:03 41.42428 -95.97444 3797 ft 176 kts 232°
2026-04-25 06:03 41.41558 -95.98452 3511 ft 160 kts 198°
2026-04-25 06:04 41.40512 -95.98532 3240 ft 148 kts 163°
2026-04-25 06:04 41.39608 -95.97956 2907 ft 142 kts 148°
2026-04-25 06:04 41.38779 -95.97308 2644 ft 133 kts 150°
2026-04-25 06:04 41.37983 -95.96723 2510 ft 127 kts 151°
2026-04-25 06:05 41.37237 -95.96108 2450 ft 126 kts 147°
2026-04-25 06:05 41.36512 -95.95461 2402 ft 126 kts 147°
2026-04-25 06:05 41.35792 -95.94801 2208 ft 125 kts 145°
2026-04-25 06:05 41.35086 -95.94123 1981 ft 125 kts 143°
2026-04-25 06:06 41.34378 -95.93434 1762 ft 127 kts 144°
2026-04-25 06:06 41.33648 -95.92751 1595 ft 130 kts 145°
2026-04-25 06:06 41.32892 -95.92058 1388 ft 133 kts 143°
2026-04-25 06:06 41.32135 -95.91331 1159 ft 135 kts 145°
2026-04-25 06:07 41.31370 -95.90597 1016 ft 136 kts 144°
2026-04-25 06:07 41.30680 -95.89940 989 ft 104 kts 144°
2026-04-25 06:07 41.30232 -95.89516 987 ft 55 kts 144°
2026-04-25 06:07 41.29970 -95.89265 985 ft 47 kts 144°
2026-04-25 06:08 41.29779 -95.89092 987 ft 14 kts 167°
2026-04-25 06:08 41.29714 -95.89187 984 ft 16 kts 252°
2026-04-25 06:08 41.29703 -95.89344 987 ft 18 kts 271°
2026-04-25 06:08 41.29705 -95.89523 986 ft 21 kts 270°
2026-04-25 06:09 41.29760 -95.89608 986 ft 15 kts 349°
2026-04-25 06:09 41.29780 -95.89719 992 ft 13 kts 256°
2026-04-25 06:09 41.29778 -95.89773 986 ft 0 kts 264°